| time (UTC) | temp C | wind direction | speed KPH | gust KPH | rain 1hr cm | rain 24hr cm | rain mn cm | humidity % | barometer mb |
| 20260906230005 | 21 | 28 | 11.3 | 19.3 | 0.00 | 0.00 | 0.00 | 64 | 1014.2 |
| 20260906225503 | 21 | 27 | 11.3 | 17.7 | 0.00 | 0.00 | 0.00 | 65 | 1014.2 |
| 20260906225004 | 21 | 45 | 12.9 | 19.3 | 0.00 | 0.00 | 0.00 | 65 | 1014.2 |
| 20260906224504 | 21 | 27 | 14.5 | 19.3 | 0.00 | 0.00 | 0.00 | 65 | 1014.2 |
| 20260906224007 | 21 | 39 | 11.3 | 16.1 | 0.00 | 0.00 | 0.00 | 66 | 1014.3 |
| 20260906223503 | 21 | 25 | 11.3 | 19.3 | 0.00 | 0.00 | 0.00 | 66 | 1014.3 |
| 20260906223005 | 21 | 8 | 11.3 | 19.3 | 0.00 | 0.00 | 0.00 | 65 | 1014.3 |
| 20260906222502 | 21 | 49 | 11.3 | 19.3 | 0.00 | 0.00 | 0.00 | 65 | 1014.2 |
| 20260906222006 | 21 | 19 | 14.5 | 25.7 | 0.00 | 0.00 | 0.00 | 66 | 1014.2 |
| 20260906221505 | 21 | 37 | 14.5 | 25.7 | 0.00 | 0.00 | 0.00 | 66 | 1014.3 |
| 20260906221004 | 21 | 58 | 8.0 | 20.9 | 0.00 | 0.00 | 0.00 | 66 | 1014.3 |
| 20260906220504 | 21 | 37 | 12.9 | 20.9 | 0.00 | 0.00 | 0.00 | 67 | 1014.4 |
| 20260906220004 | 21 | 82 | 12.9 | 17.7 | 0.00 | 0.00 | 0.00 | 66 | 1014.3 |
| 20260906215504 | 21 | 59 | 12.9 | 20.9 | 0.00 | 0.00 | 0.00 | 66 | 1014.3 |
| 20260906215004 | 21 | 63 | 12.9 | 20.9 | 0.00 | 0.00 | 0.00 | 66 | 1014.4 |
| 20260906214509 | 21 | 72 | 6.4 | 19.3 | 0.00 | 0.00 | 0.00 | 67 | 1014.4 |
| 20260906214003 | 21 | 53 | 14.5 | 19.3 | 0.00 | 0.00 | 0.00 | 67 | 1014.4 |
| 20260906213503 | 20 | 39 | 14.5 | 19.3 | 0.00 | 0.00 | 0.00 | 67 | 1014.4 |
| 20260906213010 | 20 | 53 | 16.1 | 19.3 | 0.00 | 0.00 | 0.00 | 67 | 1014.4 |
| 20260906212503 | 20 | 65 | 11.3 | 20.9 | 0.00 | 0.00 | 0.00 | 67 | 1014.5 |
| 20260906212004 | 20 | 33 | 12.9 | 20.9 | 0.00 | 0.00 | 0.00 | 67 | 1014.6 |
| 20260906211503 | 20 | 29 | 8.0 | 19.3 | 0.00 | 0.00 | 0.00 | 67 | 1014.6 |
| 20260906211006 | 20 | 39 | 12.9 | 17.7 | 0.00 | 0.00 | 0.00 | 68 | 1014.7 |
| 20260906210504 | 20 | 53 | 11.3 | 17.7 | 0.00 | 0.00 | 0.00 | 68 | 1014.8 |
| 20260906210010 | 20 | 62 | 8.0 | 17.7 | 0.00 | 0.00 | 0.00 | 69 | 1015.0 |
| 20260906205503 | 20 | 77 | 9.7 | 17.7 | 0.00 | 0.00 | 0.00 | 69 | 1015.0 |
| 20260906205004 | 20 | 7 | 12.9 | 20.9 | 0.00 | 0.00 | 0.00 | 69 | 1015.1 |
| 20260906204513 | 20 | 59 | 12.9 | 20.9 | 0.00 | 0.00 | 0.00 | 69 | 1015.0 |
| 20260906204004 | 19 | 98 | 11.3 | 17.7 | 0.00 | 0.00 | 0.00 | 70 | 1015.1 |
| 20260906203504 | 19 | 100 | 12.9 | 20.9 | 0.00 | 0.00 | 0.00 | 71 | 1015.1 |
| 20260906203008 | 18 | 114 | 14.5 | 20.9 | 0.00 | 0.00 | 0.00 | 72 | 1015.1 |
| 20260906202503 | 18 | 98 | 17.7 | 20.9 | 0.00 | 0.00 | 0.00 | 72 | 1015.3 |
| 20260906202006 | 18 | 95 | 12.9 | 19.3 | 0.00 | 0.00 | 0.00 | 73 | 1015.4 |
| 20260906201503 | 18 | 85 | 14.5 | 25.7 | 0.00 | 0.00 | 0.00 | 72 | 1015.5 |
| 20260906201004 | 18 | 91 | 16.1 | 25.7 | 0.00 | 0.00 | 0.00 | 73 | 1015.5 |
| 20260906200504 | 18 | 81 | 16.1 | 22.5 | 0.00 | 0.00 | 0.00 | 73 | 1015.6 |
| 20260906200005 | 17 | 85 | 12.9 | 20.9 | 0.00 | 0.00 | 0.00 | 75 | 1015.6 |
| 20260906195505 | 18 | 65 | 16.1 | 24.1 | 0.00 | 0.00 | 0.00 | 75 | 1015.8 |
| 20260906195004 | 18 | 84 | 14.5 | 25.7 | 0.00 | 0.00 | 0.00 | 75 | 1015.9 |
| 20260906194510 | 18 | 360 | 19.3 | 25.7 | 0.00 | 0.00 | 0.00 | 74 | 1015.6 |
| 20260906194009 | 17 | 360 | 17.7 | 22.5 | 0.00 | 0.00 | 0.00 | 76 | 1015.6 |
| 20260906193506 | 17 | 360 | 17.7 | 22.5 | 0.00 | 0.00 | 0.00 | 77 | 1015.8 |
| 20260906193010 | 17 | 101 | 16.1 | 20.9 | 0.00 | 0.00 | 0.00 | 78 | 1016.0 |
| 20260906192505 | 17 | 99 | 17.7 | 22.5 | 0.00 | 0.00 | 0.00 | 78 | 1016.0 |
| 20260906192006 | 16 | 112 | 14.5 | 22.5 | 0.00 | 0.00 | 0.00 | 78 | 1016.1 |
| 20260906191510 | 16 | 94 | 16.1 | 24.1 | 0.00 | 0.00 | 0.00 | 79 | 1016.3 |
| 20260906191003 | 16 | 62 | 16.1 | 27.4 | 0.00 | 0.00 | 0.00 | 79 | 1016.3 |
| 20260906190505 | 16 | 84 | 19.3 | 29.0 | 0.00 | 0.00 | 0.00 | 79 | 1016.4 |
| 20260906190003 | 16 | 62 | 22.5 | 29.0 | 0.00 | 0.00 | 0.00 | 79 | 1016.4 |
| 20260906185503 | 16 | 76 | 17.7 | 29.0 | 0.00 | 0.00 | 0.00 | 80 | 1016.4 |
| 20260906185003 | 16 | 39 | 19.3 | 29.0 | 0.00 | 0.00 | 0.00 | 81 | 1016.5 |
| 20260906184508 | 16 | 67 | 22.5 | 32.2 | 0.00 | 0.00 | 0.00 | 81 | 1016.6 |
| 20260906184004 | 16 | 44 | 24.1 | 33.8 | 0.00 | 0.00 | 0.00 | 80 | 1016.6 |
| 20260906183508 | 16 | 25 | 17.7 | 33.8 | 0.00 | 0.00 | 0.00 | 80 | 1016.7 |
| 20260906183020 | 16 | 11 | 20.9 | 33.8 | 0.00 | 0.00 | 0.00 | 77 | 1016.8 |
| 20260906182506 | 17 | 360 | 24.1 | 30.6 | 0.00 | 0.00 | 0.00 | 74 | 1016.8 |
| 20260906182007 | 18 | 360 | 14.5 | 24.1 | 0.00 | 0.00 | 0.00 | 75 | 1016.8 |
| 20260906181534 | 18 | 360 | 9.7 | 16.1 | 0.00 | 0.00 | 0.00 | 74 | 1016.8 |
| 20260906181007 | 18 | 360 | 8.0 | 14.5 | 0.00 | 0.00 | 0.00 | 74 | 1016.9 |
| 20260906180508 | 18 | 360 | 4.8 | 16.1 | 0.00 | 0.00 | 0.00 | 74 | 1017.0 |
| 20260906180022 | 18 | 360 | 9.7 | 16.1 | 0.00 | 0.00 | 0.00 | 74 | 1017.2 |
| 20260906175504 | 18 | 360 | 8.0 | 12.9 | 0.00 | 0.00 | 0.00 | 74 | 1017.1 |
| 20260906175002 | 18 | 295 | 8.0 | 17.7 | 0.00 | 0.00 | 0.00 | 74 | 1017.2 |
| 20260906174504 | 18 | 310 | 11.3 | 17.7 | 0.00 | 0.00 | 0.00 | 73 | 1017.1 |
| 20260906174004 | 18 | 257 | 8.0 | 16.1 | 0.00 | 0.00 | 0.00 | 74 | 1017.2 |
| 20260906173504 | 18 | 304 | 9.7 | 14.5 | 0.00 | 0.00 | 0.00 | 76 | 1017.2 |
| 20260906173010 | 18 | 309 | 9.7 | 12.9 | 0.00 | 0.00 | 0.00 | 75 | 1017.3 |
| 20260906172504 | 18 | 318 | 6.4 | 12.9 | 0.00 | 0.00 | 0.00 | 74 | 1017.3 |
| 20260906172005 | 18 | 298 | 6.4 | 12.9 | 0.00 | 0.00 | 0.00 | 74 | 1017.3 |
| 20260906171514 | 18 | 261 | 3.2 | 11.3 | 0.00 | 0.00 | 0.00 | 76 | 1017.3 |
| 20260906171008 | 18 | 257 | 6.4 | 12.9 | 0.00 | 0.00 | 0.00 | 75 | 1017.4 |
| 20260906170508 | 18 | 269 | 8.0 | 12.9 | 0.00 | 0.00 | 0.00 | 75 | 1017.3 |
| 20260906170016 | 18 | 309 | 4.8 | 12.9 | 0.00 | 0.00 | 0.00 | 75 | 1017.5 |
| 20260906165509 | 18 | 264 | 8.0 | 11.3 | 0.00 | 0.00 | 0.00 | 75 | 1017.5 |
| 20260906165008 | 18 | 288 | 6.4 | 11.3 | 0.00 | 0.00 | 0.00 | 74 | 1017.3 |
| 20260906164517 | 18 | 285 | 4.8 | 11.3 | 0.00 | 0.00 | 0.00 | 74 | 1017.3 |
| 20260906164009 | 18 | 277 | 4.8 | 11.3 | 0.00 | 0.00 | 0.00 | 73 | 1017.3 |
| 20260906163504 | 18 | 281 | 3.2 | 8.0 | 0.00 | 0.00 | 0.00 | 73 | 1017.4 |
| 20260906163008 | 18 | 316 | 4.8 | 8.0 | 0.00 | 0.00 | 0.00 | 73 | 1017.5 |
| 20260906162506 | 18 | 316 | 3.2 | 8.0 | 0.00 | 0.00 | 0.00 | 73 | 1017.3 |
| 20260906162003 | 18 | 34 | 1.6 | 9.7 | 0.00 | 0.00 | 0.00 | 73 | 1017.5 |
| 20260906161512 | 18 | 25 | 3.2 | 9.7 | 0.00 | 0.00 | 0.00 | 73 | 1017.4 |
| 20260906161005 | 18 | 321 | 3.2 | 9.7 | 0.00 | 0.00 | 0.00 | 74 | 1017.5 |
| 20260906160507 | 18 | 311 | 4.8 | 9.7 | 0.00 | 0.00 | 0.00 | 75 | 1017.9 |
| 20260906160018 | 18 | 326 | 6.4 | 9.7 | 0.00 | 0.00 | 0.00 | 75 | 1017.9 |
| 20260906155508 | 17 | 38 | 0.0 | 6.4 | 0.00 | 0.00 | 0.00 | 77 | 1017.8 |
| 20260906155008 | 17 | 99 | 0.0 | 8.0 | 0.00 | 0.00 | 0.00 | 78 | 1017.9 |
| 20260906154534 | 17 | 99 | 4.8 | 11.3 | 0.00 | 0.00 | 0.00 | 78 | 1017.8 |
| 20260906154008 | 17 | 74 | 3.2 | 12.9 | 0.00 | 0.00 | 0.00 | 79 | 1017.9 |
| 20260906153510 | 16 | 360 | 8.0 | 16.1 | 0.00 | 0.00 | 0.00 | 79 | 1017.9 |
| 20260906153021 | 16 | 79 | 6.4 | 16.1 | 0.00 | 0.00 | 0.00 | 80 | 1018.0 |
| 20260906152512 | 16 | 360 | 8.0 | 17.7 | 0.00 | 0.00 | 0.00 | 80 | 1018.1 |
| 20260906152006 | 16 | 63 | 9.7 | 19.3 | 0.00 | 0.00 | 0.00 | 80 | 1018.1 |
| 20260906151512 | 16 | 60 | 9.7 | 20.9 | 0.00 | 0.00 | 0.00 | 80 | 1018.1 |
| 20260906151009 | 16 | 86 | 14.5 | 22.5 | 0.00 | 0.00 | 0.00 | 80 | 1018.0 |
| 20260906150506 | 16 | 95 | 17.7 | 24.1 | 0.00 | 0.00 | 0.00 | 81 | 1017.9 |
| 20260906150014 | 16 | 99 | 16.1 | 24.1 | 0.00 | 0.00 | 0.00 | 81 | 1018.0 |
| 20260906145510 | 16 | 91 | 16.1 | 22.5 | 0.00 | 0.00 | 0.00 | 80 | 1017.9 |
| 20260906145008 | 16 | 360 | 16.1 | 24.1 | 0.00 | 0.00 | 0.00 | 80 | 1018.1 |
| 20260906144524 | 16 | 360 | 12.9 | 24.1 | 0.00 | 0.00 | 0.00 | 80 | 1018.2 |
| 20260906144010 | 16 | 360 | 16.1 | 22.5 | 0.00 | 0.00 | 0.00 | 80 | 1018.1 |
| 20260906143511 | 16 | 85 | 14.5 | 22.5 | 0.00 | 0.00 | 0.00 | 80 | 1018.2 |
| 20260906143024 | 16 | 360 | 14.5 | 22.5 | 0.00 | 0.00 | 0.00 | 81 | 1018.3 |
| 20260906142512 | 16 | 58 | 16.1 | 22.5 | 0.00 | 0.00 | 0.00 | 81 | 1018.3 |
| 20260906142011 | 15 | 70 | 14.5 | 22.5 | 0.00 | 0.00 | 0.00 | 82 | 1018.3 |
| 20260906141508 | 15 | 360 | 12.9 | 22.5 | 0.00 | 0.00 | 0.00 | 83 | 1018.1 |
| 20260906141006 | 15 | 360 | 14.5 | 24.1 | 0.00 | 0.00 | 0.00 | 84 | 1018.1 |
| 20260906140505 | 15 | 360 | 19.3 | 24.1 | 0.00 | 0.00 | 0.00 | 84 | 1018.0 |
| 20260906140013 | 15 | 360 | 16.1 | 20.9 | 0.00 | 0.00 | 0.00 | 84 | 1018.1 |
| 20260906135507 | 14 | 82 | 12.9 | 19.3 | 0.00 | 0.00 | 0.00 | 85 | 1018.3 |
| 20260906135008 | 14 | 86 | 14.5 | 19.3 | 0.00 | 0.00 | 0.00 | 85 | 1018.5 |
| 20260906134526 | 14 | 360 | 11.3 | 20.9 | 0.00 | 0.00 | 0.00 | 85 | 1018.6 |
| 20260906134011 | 14 | 80 | 14.5 | 20.9 | 0.00 | 0.00 | 0.00 | 85 | 1018.4 |
| 20260906133509 | 14 | 44 | 11.3 | 20.9 | 0.00 | 0.00 | 0.00 | 85 | 1018.3 |
| 20260906133026 | 13 | 28 | 12.9 | 25.7 | 0.00 | 0.00 | 0.00 | 86 | 1018.0 |
| 20260906132515 | 13 | 36 | 17.7 | 25.7 | 0.00 | 0.00 | 0.00 | 86 | 1017.8 |
| 20260906132004 | 13 | 52 | 12.9 | 22.5 | 0.00 | 0.00 | 0.00 | 86 | 1017.7 |
| 20260906131511 | 13 | 16 | 14.5 | 22.5 | 0.00 | 0.00 | 0.00 | 87 | 1017.8 |
| 20260906131004 | 13 | 29 | 12.9 | 22.5 | 0.00 | 0.00 | 0.00 | 87 | 1017.8 |
| 20260906130506 | 13 | 16 | 12.9 | 19.3 | 0.00 | 0.00 | 0.00 | 88 | 1017.8 |
| 20260906130011 | 13 | 17 | 11.3 | 19.3 | 0.00 | 0.00 | 0.00 | 88 | 1017.9 |
| 20260906125508 | 12 | 26 | 11.3 | 20.9 | 0.00 | 0.00 | 0.00 | 88 | 1017.9 |
| 20260906125007 | 12 | 39 | 12.9 | 24.1 | 0.00 | 0.00 | 0.00 | 88 | 1017.7 |
| 20260906124521 | 12 | 52 | 14.5 | 24.1 | 0.00 | 0.00 | 0.00 | 88 | 1017.5 |
| 20260906124008 | 12 | 51 | 12.9 | 22.5 | 0.00 | 0.00 | 0.00 | 88 | 1017.4 |
| 20260906123510 | 12 | 25 | 19.3 | 25.7 | 0.00 | 0.00 | 0.00 | 88 | 1017.4 |
| 20260906123026 | 12 | 34 | 19.3 | 25.7 | 0.00 | 0.00 | 0.00 | 88 | 1017.5 |
| 20260906122511 | 12 | 33 | 16.1 | 24.1 | 0.00 | 0.00 | 0.00 | 89 | 1017.7 |
| 20260906122013 | 12 | 56 | 16.1 | 20.9 | 0.00 | 0.00 | 0.00 | 90 | 1017.6 |
| 20260906121525 | 12 | 44 | 12.9 | 17.7 | 0.00 | 0.00 | 0.00 | 90 | 1017.6 |
| 20260906121014 | 12 | 53 | 9.7 | 17.7 | 0.00 | 0.00 | 0.00 | 90 | 1017.7 |
| 20260906120504 | 12 | 50 | 12.9 | 17.7 | 0.00 | 0.00 | 0.00 | 90 | 1017.6 |
| 20260906120011 | 12 | 60 | 12.9 | 17.7 | 0.00 | 0.00 | 0.00 | 91 | 1017.5 |
| 20260906115505 | 11 | 50 | 12.9 | 16.1 | 0.00 | 0.00 | 0.00 | 91 | 1017.7 |
| 20260906115006 | 11 | 72 | 9.7 | 12.9 | 0.00 | 0.00 | 0.00 | 91 | 1017.8 |
| 20260906114529 | 11 | 69 | 8.0 | 11.3 | 0.00 | 0.00 | 0.00 | 91 | 1017.8 |
| 20260906114006 | 10 | 69 | 8.0 | 11.3 | 0.00 | 0.00 | 0.00 | 90 | 1017.7 |
| 20260906113509 | 10 | 72 | 8.0 | 9.7 | 0.00 | 0.00 | 0.00 | 90 | 1017.8 |
| 20260906113018 | 11 | 87 | 8.0 | 9.7 | 0.00 | 0.00 | 0.00 | 89 | 1017.9 |
| 20260906112509 | 11 | 98 | 8.0 | 12.9 | 0.00 | 0.00 | 0.00 | 89 | 1017.9 |
| 20260906112013 | 11 | 100 | 6.4 | 12.9 | 0.00 | 0.00 | 0.00 | 88 | 1017.9 |
| 20260906111533 | 11 | 82 | 8.0 | 12.9 | 0.00 | 0.00 | 0.00 | 88 | 1018.1 |
| 20260906111012 | 11 | 82 | 8.0 | 11.3 | 0.00 | 0.00 | 0.00 | 88 | 1018.0 |
| 20260906110514 | 12 | 139 | 8.0 | 14.5 | 0.00 | 0.00 | 0.00 | 87 | 1017.9 |
| 20260906110031 | 12 | 360 | 8.0 | 14.5 | 0.00 | 0.00 | 0.00 | 87 | 1018.0 |
| 20260906105514 | 12 | 360 | 11.3 | 16.1 | 0.00 | 0.00 | 0.00 | 87 | 1017.9 |
| 20260906105007 | 12 | 360 | 11.3 | 19.3 | 0.00 | 0.00 | 0.00 | 86 | 1017.9 |
| 20260906104511 | 12 | 360 | 12.9 | 20.9 | 0.00 | 0.00 | 0.00 | 86 | 1017.8 |
| 20260906104007 | 12 | 360 | 16.1 | 24.1 | 0.00 | 0.00 | 0.00 | 85 | 1017.9 |
| 20260906103506 | 13 | 360 | 14.5 | 27.4 | 0.00 | 0.00 | 0.00 | 85 | 1017.9 |
| 20260906103019 | 13 | 360 | 17.7 | 32.2 | 0.00 | 0.00 | 0.00 | 85 | 1017.8 |
| 20260906102513 | 13 | 360 | 17.7 | 32.2 | 0.00 | 0.00 | 0.00 | 85 | 1017.9 |
| 20260906102008 | 13 | 360 | 22.5 | 32.2 | 0.00 | 0.00 | 0.00 | 85 | 1017.8 |
| 20260906101527 | 13 | 89 | 16.1 | 22.5 | 0.00 | 0.00 | 0.00 | 85 | 1017.7 |
| 20260906101012 | 12 | 75 | 19.3 | 22.5 | 0.00 | 0.00 | 0.00 | 85 | 1017.7 |
| 20260906100512 | 12 | 71 | 11.3 | 19.3 | 0.00 | 0.00 | 0.00 | 85 | 1017.6 |
| 20260906100033 | 12 | 78 | 12.9 | 19.3 | 0.00 | 0.00 | 0.00 | 84 | 1017.7 |
| 20260906095520 | 12 | 55 | 12.9 | 20.9 | 0.00 | 0.00 | 0.00 | 84 | 1017.9 |
| 20260906095014 | 13 | 60 | 14.5 | 22.5 | 0.00 | 0.00 | 0.00 | 83 | 1017.9 |
| 20260906094552 | 13 | 35 | 17.7 | 27.4 | 0.00 | 0.00 | 0.00 | 83 | 1017.8 |
| 20260906094016 | 13 | 46 | 17.7 | 32.2 | 0.00 | 0.00 | 0.00 | 83 | 1017.8 |
| 20260906093514 | 13 | 44 | 24.1 | 32.2 | 0.00 | 0.00 | 0.00 | 82 | 1017.5 |
| 20260906093018 | 13 | 58 | 22.5 | 32.2 | 0.00 | 0.00 | 0.00 | 82 | 1017.5 |
| 20260906092508 | 13 | 44 | 22.5 | 32.2 | 0.00 | 0.00 | 0.00 | 82 | 1017.5 |
| 20260906092009 | 13 | 46 | 24.1 | 32.2 | 0.00 | 0.00 | 0.00 | 82 | 1017.5 |
| 20260906091523 | 13 | 49 | 24.1 | 32.2 | 0.00 | 0.00 | 0.00 | 82 | 1017.5 |
| 20260906091015 | 13 | 52 | 22.5 | 32.2 | 0.00 | 0.00 | 0.00 | 81 | 1017.5 |
| 20260906090510 | 13 | 34 | 25.7 | 33.8 | 0.00 | 0.00 | 0.00 | 81 | 1017.5 |
| 20260906090032 | 13 | 63 | 24.1 | 33.8 | 0.00 | 0.00 | 0.00 | 81 | 1017.4 |
| 20260906085512 | 13 | 60 | 22.5 | 32.2 | 0.00 | 0.00 | 0.00 | 81 | 1017.4 |
| 20260906085015 | 13 | 53 | 20.9 | 33.8 | 0.00 | 0.00 | 0.00 | 81 | 1017.5 |
| 20260906084531 | 13 | 59 | 24.1 | 37.0 | 0.00 | 0.00 | 0.00 | 81 | 1017.5 |
| 20260906084015 | 13 | 62 | 25.7 | 37.0 | 0.00 | 0.00 | 0.00 | 80 | 1017.6 |
| 20260906083514 | 13 | 50 | 25.7 | 35.4 | 0.00 | 0.00 | 0.00 | 80 | 1017.7 |
| 20260906083043 | 13 | 52 | 25.7 | 35.4 | 0.00 | 0.00 | 0.00 | 80 | 1017.7 |
| 20260906082513 | 13 | 65 | 24.1 | 33.8 | 0.00 | 0.00 | 0.00 | 80 | 1017.8 |
| 20260906082017 | 13 | 56 | 24.1 | 33.8 | 0.00 | 0.00 | 0.00 | 80 | 1018.0 |
| 20260906081520 | 13 | 55 | 24.1 | 32.2 | 0.00 | 0.00 | 0.00 | 81 | 1018.1 |
| 20260906081010 | 13 | 360 | 24.1 | 32.2 | 0.00 | 0.00 | 0.00 | 80 | 1018.1 |
| 20260906080512 | 13 | 360 | 19.3 | 29.0 | 0.00 | 0.00 | 0.00 | 80 | 1018.3 |
| 20260906080009 | 13 | 360 | 20.9 | 29.0 | 0.00 | 0.00 | 0.00 | 80 | 1018.4 |
| 20260906075502 | 13 | 360 | 22.5 | 32.2 | 0.00 | 0.00 | 0.00 | 80 | 1018.4 |
| 20260906075006 | 13 | 360 | 22.5 | 32.2 | 0.00 | 0.00 | 0.00 | 80 | 1018.4 |
| 20260906074504 | 13 | 100 | 24.1 | 30.6 | 0.00 | 0.00 | 0.00 | 79 | 1018.4 |
| 20260906074004 | 13 | 107 | 22.5 | 30.6 | 0.00 | 0.00 | 0.00 | 79 | 1018.5 |
| 20260906073504 | 13 | 89 | 20.9 | 27.4 | 0.00 | 0.00 | 0.00 | 79 | 1018.6 |
| 20260906073018 | 14 | 75 | 22.5 | 30.6 | 0.00 | 0.00 | 0.00 | 78 | 1018.6 |
| 20260906072502 | 14 | 69 | 20.9 | 30.6 | 0.00 | 0.00 | 0.00 | 78 | 1018.7 |
| 20260906072003 | 14 | 360 | 22.5 | 30.6 | 0.00 | 0.00 | 0.00 | 78 | 1018.7 |
| 20260906071516 | 14 | 360 | 22.5 | 30.6 | 0.00 | 0.00 | 0.00 | 77 | 1018.6 |
| 20260906071006 | 14 | 100 | 19.3 | 33.8 | 0.00 | 0.00 | 0.00 | 77 | 1018.7 |
| 20260906070511 | 15 | 105 | 27.4 | 33.8 | 0.00 | 0.00 | 0.00 | 76 | 1018.6 |
| 20260906070018 | 15 | 94 | 25.7 | 33.8 | 0.00 | 0.00 | 0.00 | 76 | 1018.8 |
| 20260906065513 | 15 | 94 | 25.7 | 35.4 | 0.00 | 0.00 | 0.00 | 75 | 1018.8 |
| 20260906065011 | 15 | 87 | 27.4 | 37.0 | 0.00 | 0.00 | 0.00 | 75 | 1018.7 |
| 20260906064502 | 15 | 75 | 25.7 | 37.0 | 0.00 | 0.00 | 0.00 | 74 | 1018.8 |
| 20260906064004 | 15 | 79 | 24.1 | 40.2 | 0.00 | 0.00 | 0.00 | 74 | 1018.8 |
| 20260906063501 | 15 | 89 | 25.7 | 40.2 | 0.00 | 0.00 | 0.00 | 74 | 1018.9 |
| 20260906063004 | 15 | 86 | 29.0 | 38.6 | 0.00 | 0.00 | 0.00 | 74 | 1018.8 |
| 20260906062503 | 15 | 63 | 24.1 | 37.0 | 0.00 | 0.00 | 0.00 | 74 | 1018.9 |
| 20260906062004 | 15 | 72 | 24.1 | 37.0 | 0.00 | 0.00 | 0.00 | 74 | 1018.9 |
| 20260906061511 | 15 | 93 | 24.1 | 33.8 | 0.00 | 0.00 | 0.00 | 73 | 1019.0 |
| 20260906061007 | 15 | 77 | 24.1 | 37.0 | 0.00 | 0.00 | 0.00 | 73 | 1018.8 |
| 20260906060511 | 15 | 82 | 25.7 | 37.0 | 0.00 | 0.00 | 0.00 | 72 | 1018.8 |
| 20260906060018 | 15 | 80 | 27.4 | 37.0 | 0.00 | 0.00 | 0.00 | 72 | 1018.8 |
| 20260906055510 | 15 | 72 | 29.0 | 37.0 | 0.00 | 0.00 | 0.00 | 72 | 1018.9 |
| 20260906055012 | 15 | 79 | 25.7 | 35.4 | 0.00 | 0.00 | 0.00 | 72 | 1018.9 |
| 20260906054524 | 15 | 82 | 27.4 | 35.4 | 0.00 | 0.00 | 0.00 | 71 | 1018.8 |
| 20260906054016 | 15 | 84 | 24.1 | 33.8 | 0.00 | 0.00 | 0.00 | 71 | 1018.8 |
| 20260906053512 | 16 | 83 | 24.1 | 32.2 | 0.00 | 0.00 | 0.00 | 71 | 1018.8 |
| 20260906053004 | 16 | 78 | 22.5 | 29.0 | 0.00 | 0.00 | 0.00 | 71 | 1018.9 |
| 20260906052507 | 15 | 58 | 19.3 | 29.0 | 0.00 | 0.00 | 0.00 | 71 | 1018.9 |
| 20260906052004 | 15 | 79 | 19.3 | 27.4 | 0.00 | 0.00 | 0.00 | 71 | 1018.9 |
| 20260906051508 | 15 | 70 | 17.7 | 25.7 | 0.00 | 0.00 | 0.00 | 72 | 1018.8 |
| 20260906051006 | 15 | 75 | 16.1 | 20.9 | 0.00 | 0.00 | 0.00 | 72 | 1018.9 |
| 20260906050503 | 15 | 81 | 16.1 | 22.5 | 0.00 | 0.00 | 0.00 | 73 | 1018.7 |
| 20260906050012 | 15 | 84 | 17.7 | 22.5 | 0.00 | 0.00 | 0.00 | 73 | 1018.6 |
| 20260906045511 | 15 | 77 | 16.1 | 22.5 | 0.00 | 0.00 | 0.00 | 73 | 1018.5 |
| 20260906045009 | 15 | 95 | 16.1 | 20.9 | 0.00 | 0.00 | 0.00 | 73 | 1018.6 |
| 20260906044523 | 15 | 90 | 16.1 | 19.3 | 0.00 | 0.00 | 0.00 | 73 | 1018.5 |
| 20260906044012 | 15 | 108 | 12.9 | 19.3 | 0.00 | 0.00 | 0.00 | 74 | 1018.5 |
| 20260906043512 | 15 | 94 | 12.9 | 20.9 | 0.00 | 0.00 | 0.00 | 74 | 1018.4 |
| 20260906043024 | 15 | 84 | 14.5 | 20.9 | 0.00 | 0.00 | 0.00 | 75 | 1018.4 |
| 20260906042514 | 14 | 82 | 11.3 | 16.1 | 0.00 | 0.00 | 0.00 | 76 | 1018.4 |
| 20260906042014 | 15 | 101 | 9.7 | 16.1 | 0.00 | 0.00 | 0.00 | 76 | 1018.3 |
| 20260906041504 | 15 | 93 | 9.7 | 20.9 | 0.00 | 0.00 | 0.00 | 76 | 1018.3 |
| 20260906041002 | 15 | 88 | 14.5 | 20.9 | 0.00 | 0.00 | 0.00 | 76 | 1018.2 |
| 20260906040504 | 15 | 80 | 16.1 | 20.9 | 0.00 | 0.00 | 0.00 | 76 | 1018.2 |
| 20260906040017 | 15 | 72 | 14.5 | 19.3 | 0.00 | 0.00 | 0.00 | 75 | 1018.2 |
| 20260906035506 | 15 | 90 | 14.5 | 19.3 | 0.00 | 0.00 | 0.00 | 75 | 1018.2 |
| 20260906035007 | 15 | 360 | 12.9 | 19.3 | 0.00 | 0.00 | 0.00 | 74 | 1018.1 |
| 20260906034520 | 15 | 360 | 14.5 | 19.3 | 0.00 | 0.00 | 0.00 | 74 | 1018.1 |
| 20260906034011 | 15 | 90 | 14.5 | 22.5 | 0.00 | 0.00 | 0.00 | 73 | 1018.0 |
| 20260906033511 | 15 | 63 | 14.5 | 22.5 | 0.00 | 0.00 | 0.00 | 73 | 1018.0 |
| 20260906033036 | 15 | 71 | 17.7 | 22.5 | 0.00 | 0.00 | 0.00 | 73 | 1018.0 |
| 20260906032512 | 15 | 56 | 14.5 | 19.3 | 0.00 | 0.00 | 0.00 | 72 | 1018.1 |
| 20260906032015 | 16 | 68 | 14.5 | 19.3 | 0.00 | 0.00 | 0.00 | 71 | 1018.1 |
| 20260906031536 | 16 | 68 | 14.5 | 19.3 | 0.00 | 0.00 | 0.00 | 70 | 1018.1 |
| 20260906031016 | 16 | 79 | 14.5 | 20.9 | 0.00 | 0.00 | 0.00 | 70 | 1018.0 |
| 20260906030516 | 16 | 360 | 14.5 | 24.1 | 0.00 | 0.00 | 0.00 | 69 | 1017.9 |
| 20260906030011 | 16 | 93 | 17.7 | 24.1 | 0.00 | 0.00 | 0.00 | 68 | 1017.9 |
| 20260906025503 | 16 | 91 | 19.3 | 25.7 | 0.00 | 0.00 | 0.00 | 67 | 1017.8 |
| 20260906025003 | 17 | 77 | 19.3 | 29.0 | 0.00 | 0.00 | 0.00 | 67 | 1017.8 |
| 20260906024531 | 17 | 60 | 19.3 | 33.8 | 0.00 | 0.00 | 0.00 | 65 | 1017.8 |
| 20260906024008 | 17 | 81 | 22.5 | 35.4 | 0.00 | 0.00 | 0.00 | 64 | 1017.7 |
| 20260906023509 | 17 | 360 | 24.1 | 40.2 | 0.00 | 0.00 | 0.00 | 63 | 1017.6 |
| 20260906023022 | 17 | 360 | 29.0 | 40.2 | 0.00 | 0.00 | 0.00 | 62 | 1017.5 |
| 20260906022508 | 18 | 360 | 27.4 | 37.0 | 0.00 | 0.00 | 0.00 | 61 | 1017.3 |
| 20260906022012 | 18 | 360 | 25.7 | 40.2 | 0.00 | 0.00 | 0.00 | 60 | 1017.3 |
| 20260906021527 | 18 | 360 | 22.5 | 40.2 | 0.00 | 0.00 | 0.00 | 57 | 1017.4 |
| 20260906021015 | 19 | 360 | 27.4 | 46.7 | 0.00 | 0.00 | 0.00 | 55 | 1017.4 |
| 20260906020516 | 19 | 360 | 27.4 | 46.7 | 0.00 | 0.00 | 0.00 | 54 | 1017.3 |
| 20260906020032 | 20 | 360 | 29.0 | 38.6 | 0.00 | 0.00 | 0.00 | 50 | 1017.2 |
| 20260906015514 | 20 | 360 | 24.1 | 32.2 | 0.00 | 0.00 | 0.00 | 48 | 1017.2 |
| 20260906015017 | 20 | 360 | 19.3 | 35.4 | 0.00 | 0.00 | 0.00 | 47 | 1017.3 |
| 20260906014512 | 21 | 360 | 25.7 | 40.2 | 0.00 | 0.00 | 0.00 | 46 | 1017.2 |
| 20260906014006 | 21 | 360 | 29.0 | 40.2 | 0.00 | 0.00 | 0.00 | 43 | 1017.1 |
| 20260906013509 | 22 | 72 | 16.1 | 19.3 | 0.00 | 0.00 | 0.00 | 41 | 1016.9 |
| 20260906013034 | 22 | 65 | 14.5 | 17.7 | 0.00 | 0.00 | 0.00 | 41 | 1016.7 |
| 20260906012510 | 22 | 80 | 11.3 | 25.7 | 0.00 | 0.00 | 0.00 | 40 | 1016.6 |
| 20260906012008 | 23 | 91 | 14.5 | 25.7 | 0.00 | 0.00 | 0.00 | 38 | 1016.6 |
| 20260906011520 | 23 | 83 | 16.1 | 22.5 | 0.00 | 0.00 | 0.00 | 38 | 1016.5 |
| 20260906011011 | 23 | 79 | 16.1 | 22.5 | 0.00 | 0.00 | 0.00 | 38 | 1016.5 |
| 20260906010510 | 23 | 73 | 16.1 | 22.5 | 0.00 | 0.00 | 0.00 | 37 | 1016.5 |
| 20260906010029 | 23 | 69 | 14.5 | 22.5 | 0.00 | 0.00 | 0.00 | 37 | 1016.5 |
| 20260906005514 | 24 | 84 | 16.1 | 24.1 | 0.00 | 0.00 | 0.00 | 36 | 1016.6 |
| 20260906005014 | 24 | 44 | 14.5 | 24.1 | 0.00 | 0.00 | 0.00 | 36 | 1016.6 |
| 20260906004530 | 24 | 60 | 16.1 | 20.9 | 0.00 | 0.00 | 0.00 | 36 | 1016.6 |
| 20260906004016 | 24 | 60 | 12.9 | 20.9 | 0.00 | 0.00 | 0.00 | 36 | 1016.6 |
| 20260906003520 | 24 | 81 | 12.9 | 24.1 | 0.00 | 0.00 | 0.00 | 36 | 1016.6 |
| 20260906003012 | 25 | 86 | 14.5 | 27.4 | 0.00 | 0.00 | 0.00 | 35 | 1016.6 |
| 20260906002507 | 25 | 63 | 20.9 | 29.0 | 0.00 | 0.00 | 0.00 | 35 | 1016.6 |
| 20260906002011 | 25 | 72 | 20.9 | 27.4 | 0.00 | 0.00 | 0.00 | 35 | 1016.6 |
| 20260906001521 | 25 | 79 | 16.1 | 24.1 | 0.00 | 0.00 | 0.00 | 35 | 1016.8 |
| 20260906001011 | 25 | 62 | 14.5 | 24.1 | 0.00 | 0.00 | 0.00 | 35 | 1016.7 |
| 20260906000511 | 25 | 65 | 16.1 | 24.1 | 0.00 | 0.00 | 0.00 | 35 | 1016.7 |
| 20260906000025 | 25 | 78 | 16.1 | 22.5 | 0.00 | 0.00 | 0.00 | 34 | 1016.7 |
| 20260905235517 | 25 | 57 | 17.7 | 24.1 | 0.00 | 0.00 | 0.00 | 33 | 1016.7 |
| 20260905235012 | 25 | 58 | 16.1 | 29.0 | 0.00 | 0.00 | 0.00 | 34 | 1016.6 |
| 20260905234532 | 25 | 67 | 17.7 | 29.0 | 0.00 | 0.00 | 0.00 | 33 | 1016.6 |
| 20260905234014 | 25 | 91 | 17.7 | 29.0 | 0.00 | 0.00 | 0.00 | 33 | 1016.6 |
| 20260905233520 | 25 | 44 | 17.7 | 27.4 | 0.00 | 0.00 | 0.00 | 33 | 1016.7 |
| 20260905233030 | 25 | 56 | 20.9 | 27.4 | 0.00 | 0.00 | 0.00 | 34 | 1016.6 |
| 20260905232519 | 25 | 75 | 19.3 | 27.4 | 0.00 | 0.00 | 0.00 | 34 | 1016.6 |
| 20260905232020 | 25 | 52 | 20.9 | 27.4 | 0.00 | 0.00 | 0.00 | 34 | 1016.6 |
| 20260905231514 | 25 | 60 | 16.1 | 30.6 | 0.00 | 0.00 | 0.00 | 33 | 1016.6 |
| 20260905231008 | 25 | 75 | 17.7 | 30.6 | 0.00 | 0.00 | 0.00 | 33 | 1016.6 |
| 20260905230508 | 25 | 74 | 14.5 | 29.0 | 0.00 | 0.00 | 0.00 | 33 | 1016.5 |
| 20260905230023 | 25 | 70 | 17.7 | 30.6 | 0.00 | 0.00 | 0.00 | 34 | 1016.6 |